GW7002 Weather Reports


time (UTC)temp
C
wind
direction
speed
KPH
gust
KPH
rain 1hr
cm
rain 24hr
cm
rain mn
cm
humidity
%
barometer
mb
20260505140509 11 221 3.2 12.9 0.00 0.00 0.00 53 1009.6
20260505125015 11 137 0.0 6.4 0.00 0.00 0.00 62 1008.9
20260505124538 11 140 0.0 3.2 0.00 0.00 0.00 63 1008.8
20260505124012 11 113 0.0 3.2 0.00 0.00 0.00 65 1008.7
20260505123508 11 227 0.0 4.8 0.00 0.00 0.00 65 1008.6
20260505123008 11 158 0.0 4.8 0.00 0.00 0.00 65 1008.6
20260505122511 11 188 0.0 4.8 0.00 0.00 0.00 63 1008.5
20260505122012 11 187 1.6 4.8 0.00 0.00 0.00 62 1008.5
20260505121510 11 176 1.6 4.8 0.00 0.00 0.00 62 1008.6
20260505121005 11 221 0.0 4.8 0.00 0.00 0.00 61 1008.6
20260505120508 11 189 0.0 4.8 0.00 0.00 0.00 60 1008.7
20260505120023 11 147 0.0 4.8 0.00 0.00 0.00 60 1008.8
20260505115504 11 108 1.6 4.8 0.00 0.00 0.00 61 1008.8
20260505115004 11 111 1.6 4.8 0.00 0.00 0.00 62 1008.7
20260505114507 11 113 1.6 17.7 0.00 0.00 0.00 61 1008.6
20260505114004 11 142 1.6 17.7 0.00 0.00 0.00 62 1008.5
20260505113505 11 68 1.6 8.0 0.00 0.00 0.00 63 1008.5
20260505113013 11 184 1.6 8.0 0.00 0.00 0.00 63 1008.5
20260505112507 11 114 1.6 6.4 0.00 0.00 0.00 65 1008.5
20260505112005 11 279 1.6 6.4 0.00 0.00 0.00 67 1008.5
20260505111510 10 188 1.6 11.3 0.00 0.00 0.00 70 1008.5
20260505111006 11 198 1.6 14.5 0.00 0.00 0.00 69 1008.5
20260505110510 11 148 1.6 14.5 0.00 0.00 0.00 68 1008.5
20260505102008 12 225 0.0 3.2 0.00 0.00 0.00 61 1008.9
20260505101514 12 229 0.0 3.2 0.00 0.00 0.00 61 1008.9
20260505101002 12 231 0.0 3.2 0.00 0.00 0.00 60 1008.9
20260505100507 12 262 0.0 4.8 0.00 0.00 0.00 61 1008.9
20260505100031 12 279 0.0 4.8 0.00 0.00 0.00 61 1008.9
20260505095507 12 255 0.0 3.2 0.00 0.00 0.00 62 1009.0
20260505095005 12 251 0.0 3.2 0.00 0.00 0.00 63 1008.9
20260505094515 12 227 0.0 4.8 0.00 0.00 0.00 64 1009.0
20260505094009 12 234 0.0 4.8 0.00 0.00 0.00 64 1009.0
20260505093503 12 154 0.0 3.2 0.00 0.00 0.00 63 1009.0
20260505093008 12 236 0.0 3.2 0.00 0.00 0.00 63 1009.0
20260505092504 12 186 1.6 4.8 0.00 0.00 0.00 63 1009.0
20260505092007 12 190 1.6 4.8 0.00 0.00 0.00 63 1009.0
20260505091514 12 178 0.0 3.2 0.00 0.00 0.00 64 1008.9
20260505091005 12 196 0.0 3.2 0.00 0.00 0.00 64 1009.0
20260505090507 12 188 0.0 3.2 0.00 0.00 0.00 64 1009.0
20260505090015 12 229 0.0 6.4 0.00 0.00 0.00 64 1009.1
20260505085507 12 180 0.0 6.4 0.00 0.00 0.00 65 1009.0
20260505085011 11 212 1.6 3.2 0.00 0.00 0.00 65 1009.1
20260505084524 11 177 0.0 3.2 0.00 0.00 0.00 66 1009.2
20260505084003 12 185 0.0 8.0 0.00 0.00 0.00 66 1009.0
20260505083509 12 205 1.6 8.0 0.00 0.00 0.00 66 1009.0
20260505083034 12 175 1.6 6.4 0.00 0.00 0.00 64 1009.0
20260505082510 12 157 1.6 6.4 0.00 0.00 0.00 62 1009.0
20260505082008 12 191 1.6 6.4 0.00 0.00 0.00 62 1009.0
20260505081514 12 168 0.0 8.0 0.00 0.00 0.00 63 1009.1
20260505081007 12 169 1.6 17.7 0.00 0.00 0.00 62 1009.2
20260505080507 12 132 1.6 17.7 0.00 0.00 0.00 62 1009.2
20260505080012 12 74 1.6 9.7 0.00 0.00 0.00 63 1009.1
20260505075506 12 120 1.6 6.4 0.00 0.00 0.00 61 1009.0
20260505075006 12 164 1.6 11.3 0.00 0.00 0.00 55 1009.0
20260505074512 13 134 1.6 11.3 0.00 0.00 0.00 54 1009.0
20260505074008 13 109 1.6 11.3 0.00 0.00 0.00 52 1009.0
20260505073507 13 86 1.6 4.8 0.00 0.00 0.00 1009.0
20260505073009 13 201 1.6 16.1 0.00 0.00 0.00 1008.9
20260505072509 13 115 0.0 16.1 0.00 0.00 0.00 1008.9
20260505072009 13 132 1.6 9.7 0.00 0.00 0.00 1008.8
20260505071536 13 197 1.6 8.0 0.00 0.00 0.00 1008.8
20260505071004 13 245 1.6 9.7 0.00 0.00 0.00 50 1008.7
20260505070506 13 113 1.6 17.7 0.00 0.00 0.00 50 1008.7
20260505070011 13 103 3.2 17.7 0.00 0.00 0.00 51 1008.6
20260505065504 13 110 3.2 12.9 0.00 0.00 0.00 51 1008.7
20260505065010 13 111 1.6 19.3 0.00 0.00 0.00 52 1008.5
20260505064515 13 87 1.6 19.3 0.00 0.00 0.00 51 1008.5
20260505064009 13 134 3.2 12.9 0.00 0.00 0.00 52 1008.5
20260505063507 13 150 1.6 14.5 0.00 0.00 0.00 52 1008.4
20260505063029 13 82 1.6 19.3 0.00 0.00 0.00 52 1008.5
20260505062507 13 128 6.4 19.3 0.00 0.00 0.00 52 1008.5
20260505062008 13 257 4.8 19.3 0.00 0.00 0.00 53 1008.4
20260505061521 13 145 3.2 27.4 0.00 0.00 0.00 53 1008.5
20260505061008 13 169 8.0 27.4 0.00 0.00 0.00 54 1008.5
20260505060510 13 163 3.2 30.6 0.00 0.00 0.00 54 1008.6
20260505060014 13 115 4.8 30.6 0.00 0.00 0.00 54 1008.6
20260505055507 13 135 3.2 17.7 0.00 0.00 0.00 54 1008.6
20260505055008 13 107 3.2 17.7 0.00 0.00 0.00 54 1008.7
20260505054535 13 107 3.2 11.3 0.00 0.00 0.00 53 1008.6
20260505054012 13 134 3.2 12.9 0.00 0.00 0.00 1008.5
20260505053512 13 155 3.2 20.9 0.00 0.00 0.00 54 1008.5
20260505053021 13 114 3.2 20.9 0.00 0.00 0.00 54 1008.5
20260505052507 13 99 1.6 9.7 0.00 0.00 0.00 54 1008.7
20260505052009 13 113 1.6 11.3 0.00 0.00 0.00 54 1008.6
20260505051535 14 146 1.6 11.3 0.00 0.00 0.00 52 1008.5
20260505051009 14 126 1.6 22.5 0.00 0.00 0.00 51 1008.6
20260505050508 15 99 4.8 22.5 0.00 0.00 0.00 50 1008.3
20260505041531 16 163 1.6 11.3 0.00 0.00 0.00 41 1007.8
20260505041007 16 180 1.6 11.3 0.00 0.00 0.00 41 1007.8
20260505040509 16 178 1.6 14.5 0.00 0.00 0.00 42 1007.6
20260505040026 16 197 1.6 12.9 0.00 0.00 0.00 42 1007.5
20260505035509 16 181 3.2 12.9 0.00 0.00 0.00 43 1007.4
20260505035014 16 248 1.6 11.3 0.00 0.00 0.00 43 1007.4
20260505034528 16 161 4.8 14.5 0.00 0.00 0.00 43 1007.4
20260505034010 16 180 3.2 11.3 0.00 0.00 0.00 43 1007.4
20260505033509 16 200 4.8 14.5 0.00 0.00 0.00 43 1007.4
20260505033017 16 112 3.2 14.5 0.00 0.00 0.00 43 1007.4
20260505032512 16 179 1.6 12.9 0.00 0.00 0.00 42 1007.3
20260505032008 16 161 1.6 14.5 0.00 0.00 0.00 42 1007.3
20260505031527 16 77 3.2 14.5 0.00 0.00 0.00 41 1007.3
20260505031008 16 197 3.2 8.0 0.00 0.00 0.00 41 1007.3
20260505030508 16 163 3.2 11.3 0.00 0.00 0.00 40 1007.4
20260505030020 17 155 1.6 11.3 0.00 0.00 0.00 40 1007.3
20260505025514 17 183 1.6 9.7 0.00 0.00 0.00 39 1007.2
20260505025008 17 167 1.6 11.3 0.00 0.00 0.00 39 1007.1
20260505024518 17 116 3.2 12.9 0.00 0.00 0.00 39 1006.9
20260505024010 17 88 3.2 12.9 0.00 0.00 0.00 38 1006.9
20260505023508 17 175 1.6 12.9 0.00 0.00 0.00 38 1006.8
20260505023031 17 134 1.6 17.7 0.00 0.00 0.00 39 1006.8
20260505022507 17 130 1.6 17.7 0.00 0.00 0.00 39 1006.8
20260505022010 17 125 1.6 16.1 0.00 0.00 0.00 38 1006.8
20260505021519 17 201 3.2 16.1 0.00 0.00 0.00 37 1006.8
20260505021007 17 136 1.6 12.9 0.00 0.00 0.00 36 1006.8
20260505020509 18 179 1.6 12.9 0.00 0.00 0.00 36 1006.7
20260505020020 18 217 1.6 3.2 0.00 0.00 0.00 35 1006.7
20260505015508 18 184 0.0 3.2 0.00 0.00 0.00 36 1006.7
20260505015008 18 184 0.0 3.2 0.00 0.00 0.00 36 1006.7
20260505014524 18 190 0.0 3.2 0.00 0.00 0.00 35 1006.7
20260505014010 18 184 0.0 3.2 0.00 0.00 0.00 35 1006.8
20260505013509 18 128 0.0 3.2 0.00 0.00 0.00 35 1006.8
20260505013024 18 108 0.0 3.2 0.00 0.00 0.00 35 1006.9
20260505012507 18 108 0.0 3.2 0.00 0.00 0.00 35 1007.0
20260505012008 18 108 0.0 3.2 0.00 0.00 0.00 34 1007.0
20260505011520 18 105 0.0 3.2 0.00 0.00 0.00 34 1007.1
20260505011008 18 101 0.0 3.2 0.00 0.00 0.00 36 1007.1
20260505010508 18 87 0.0 3.2 0.00 0.00 0.00 35 1007.1
20260505010017 18 87 0.0 3.2 0.00 0.00 0.00 35 1007.2
20260505005508 18 75 0.0 3.2 0.00 0.00 0.00 35 1007.3
20260505005009 18 114 0.0 3.2 0.00 0.00 0.00 35 1007.3
20260505004525 18 130 1.6 3.2 0.00 0.00 0.00 35 1007.4
20260505004007 18 117 1.6 4.8 0.00 0.00 0.00 36 1007.4
20260505003504 18 106 3.2 4.8 0.00 0.00 0.00 36 1007.4
20260505003008 18 113 3.2 4.8 0.00 0.00 0.00 36 1007.4
20260505002504 18 124 1.6 11.3 0.00 0.00 0.00 37 1007.4
20260505002004 18 114 3.2 11.3 0.00 0.00 0.00 35 1007.5
20260505001508 18 59 3.2 6.4 0.00 0.00 0.00 35 1007.6
20260505001004 18 106 3.2 6.4 0.00 0.00 0.00 35 1007.6
20260505000504 18 86 3.2 8.0 0.00 0.00 0.00 36 1007.4
20260505000011 18 59 3.2 8.0 0.00 0.00 0.00 35 1007.5
20260504235507 18 98 1.6 6.4 0.00 0.00 0.00 35 1007.6
20260504235007 18 103 1.6 6.4 0.00 0.00 0.00 36 1007.7
20260504234507 18 90 3.2 4.8 0.00 0.00 0.00 36 1007.8
20260504234004 18 142 1.6 6.4 0.00 0.00 0.00 36 1007.8
20260504233505 18 76 3.2 6.4 0.00 0.00 0.00 34 1007.8
20260504233007 20 101 1.6 3.2 0.00 0.00 0.00 32 1007.8
20260504232505 20 148 1.6 4.8 0.00 0.00 0.00 31 1007.8
20260504232007 20 75 1.6 4.8 0.00 0.00 0.00 31 1007.8
20260504231510 20 79 1.6 4.8 0.00 0.00 0.00 31 1007.7
20260504231006 20 146 1.6 6.4 0.00 0.00 0.00 31 1007.6
20260504230507 20 144 3.2 6.4 0.00 0.00 0.00 32 1007.6
20260504230011 19 142 1.6 4.8 0.00 0.00 0.00 33 1007.6
20260504225504 18 107 1.6 6.4 0.00 0.00 0.00 33 1007.7
20260504225007 18 98 3.2 11.3 0.00 0.00 0.00 35 1007.8
20260504224515 19 146 3.2 11.3 0.00 0.00 0.00 34 1007.7
20260504224006 20 143 3.2 6.4 0.00 0.00 0.00 30 1007.7
20260504223509 20 145 1.6 3.2 0.00 0.00 0.00 28 1007.6
20260504223006 20 279 0.0 3.2 0.00 0.00 0.00 28 1007.6
20260504222505 20 281 0.0 3.2 0.00 0.00 0.00 28 1007.5
20260504222009 20 281 0.0 3.2 0.00 0.00 0.00 28 1007.6
20260504221507 20 284 0.0 4.8 0.00 0.00 0.00 28 1007.6
20260504221005 20 256 1.6 6.4 0.00 0.00 0.00 30 1007.6
20260504220507 20 291 1.6 11.3 0.00 0.00 0.00 30 1007.7
20260504220010 20 299 1.6 11.3 0.00 0.00 0.00 31 1007.7
20260504215507 20 297 0.0 4.8 0.00 0.00 0.00 31 1007.7
20260504215007 20 271 1.6 4.8 0.00 0.00 0.00 30 1007.8
20260504214510 20 332 3.2 9.7 0.00 0.00 0.00 30 1007.9
20260504214002 20 287 3.2 11.3 0.00 0.00 0.00 29 1007.9
20260504213503 20 336 1.6 11.3 0.00 0.00 0.00 30 1007.8
20260504213010 20 285 1.6 9.7 0.00 0.00 0.00 30 1007.9
20260504212507 20 270 3.2 11.3 0.00 0.00 0.00 31 1007.9
20260504212003 20 333 1.6 11.3 0.00 0.00 0.00 30 1008.0
20260504211510 20 288 1.6 6.4 0.00 0.00 0.00 31 1008.1
20260504211003 20 321 1.6 8.0 0.00 0.00 0.00 31 1008.2
20260504210504 21 309 3.2 8.0 0.00 0.00 0.00 30 1008.2
20260504210018 21 288 1.6 4.8 0.00 0.00 0.00 30 1008.2
20260504205507 21 320 1.6 4.8 0.00 0.00 0.00 32 1008.2
20260504205007 21 321 0.0 4.8 0.00 0.00 0.00 31 1008.2
20260504204512 20 306 0.0 3.2 0.00 0.00 0.00 33 1008.3
20260504204006 21 306 0.0 6.4 0.00 0.00 0.00 32 1008.3
20260504203506 21 326 1.6 6.4 0.00 0.00 0.00 31 1008.4
20260504203005 21 323 1.6 4.8 0.00 0.00 0.00 31 1008.3
20260504202506 21 48 0.0 4.8 0.00 0.00 0.00 28 1008.4
20260504202007 21 302 1.6 6.4 0.00 0.00 0.00 30 1008.5
20260504201512 21 325 0.0 6.4 0.00 0.00 0.00 30 1008.5
20260504201003 20 268 3.2 6.4 0.00 0.00 0.00 31 1008.5
20260504200507 20 316 1.6 9.7 0.00 0.00 0.00 32 1008.5
20260504200015 20 325 3.2 12.9 0.00 0.00 0.00 31 1008.5
20260504195504 20 342 1.6 12.9 0.00 0.00 0.00 32 1008.5
20260504195007 21 12 0.0 4.8 0.00 0.00 0.00 31 1008.6
20260504194516 21 24 1.6 6.4 0.00 0.00 0.00 32 1008.5
20260504194007 21 69 1.6 8.0 0.00 0.00 0.00 33 1008.6
20260504193511 21 335 1.6 9.7 0.00 0.00 0.00 32 1008.7
20260504193015 21 317 1.6 12.9 0.00 0.00 0.00 33 1008.7
20260504192509 20 348 3.2 12.9 0.00 0.00 0.00 31 1008.7
20260504192008 21 351 4.8 14.5 0.00 0.00 0.00 30 1008.8
20260504191514 22 338 4.8 12.9 0.00 0.00 0.00 31 1008.7
20260504191009 22 352 4.8 12.9 0.00 0.00 0.00 30 1008.8
20260504190510 22 351 4.8 12.9 0.00 0.00 0.00 30 1009.0
20260504190011 22 335 1.6 9.7 0.00 0.00 0.00 30 1009.1
20260504185507 22 296 0.0 9.7 0.00 0.00 0.00 30 1009.1
20260504185005 21 192 1.6 11.3 0.00 0.00 0.00 32 1009.2
20260504184520 21 321 3.2 11.3 0.00 0.00 0.00 31 1009.2
20260504184009 21 5 0.0 3.2 0.00 0.00 0.00 30 1009.2
20260504183506 21 238 0.0 3.2 0.00 0.00 0.00 29 1009.2
20260504183024 21 153 0.0 3.2 0.00 0.00 0.00 31 1009.2
20260504182504 20 127 0.0 3.2 0.00 0.00 0.00 31 1009.3
20260504182009 20 84 1.6 9.7 0.00 0.00 0.00 29 1009.4
20260504181514 21 120 0.0 9.7 0.00 0.00 0.00 29 1009.5
20260504181006 21 173 0.0 3.2 0.00 0.00 0.00 31 1009.5
20260504180504 21 157 0.0 6.4 0.00 0.00 0.00 30 1009.5
20260504180017 21 188 1.6 6.4 0.00 0.00 0.00 30 1009.6
20260504175507 20 148 0.0 4.8 0.00 0.00 0.00 30 1009.7
20260504175004 21 148 1.6 4.8 0.00 0.00 0.00 30 1009.7
20260504174511 20 183 0.0 4.8 0.00 0.00 0.00 32 1009.8
20260504174006 20 139 1.6 4.8 0.00 0.00 0.00 31 1009.8
20260504173512 20 139 1.6 4.8 0.00 0.00 0.00 32 1009.8
20260504173014 20 142 1.6 4.8 0.00 0.00 0.00 33 1009.9
20260504172512 20 134 0.0 4.8 0.00 0.00 0.00 33 1009.9
20260504172011 19 142 1.6 6.4 0.00 0.00 0.00 33 1009.9
20260504171508 19 144 3.2 6.4 0.00 0.00 0.00 33 1010.0
20260504171011 19 207 0.0 6.4 0.00 0.00 0.00 34 1010.0
20260504170508 19 135 1.6 4.8 0.00 0.00 0.00 33 1010.0
20260504151007 17 179 1.6 14.5 0.00 0.00 0.00 39 1010.3
20260504150506 17 113 1.6 6.4 0.00 0.00 0.00 40 1010.3